Location: Bluff Heights
(33.7692°N, 118.1592°W)
Time: 02:55:04
(UTC+00:00)

deb Explorer IX - Pass Details

Date: 02 August 2021
Orbit: 545 x 1091 km, 38.8° (Epoch: 22 September)

Event Time Altitude Azimuth Distance (km) Brightness Sun altitude
Rises 03:31:31 0° 279° (W) 3,619 ? -8.2°
Reaches altitude 10° 03:34:52 10° 262° (W) 2,758 ? -8.8°
Maximum altitude 03:39:21 19° 220° (SW) 2,262 ? -9.6°
Drops below altitude 10° 03:44:03 10° 178° (S) 2,904 ? -10.5°
Enters shadow 03:47:09 - 164° (SSE) 3,711 ? -11.0°
